Flag for New Zealand Weather past 2 weeks in Wellington, New Zealand

Now
61 °F

Passing clouds.


Feels Like: 61 °F
Forecast: 61 / 67 °F
Wind: 15 mph from Northeast

Location: Wellington Airport

Current Time: Apr 2, 2015 at 5:34:35 AM

Latest Report: Apr 2, 2015 at 5:00 AM


Visibility: N/A

Pressure: 30.30 "Hg

Humidity: 83%

Dew point: 55 °F

Location of WellingtonLocation

Historic Weather in Wellington — Graph

°F

Wellington temperature yesterday

Maximum temperature yesterday: 68 °F (at 6:00 PM)
Minimum temperature yesterday: 54 °F (at 4:00 AM)
Average temperature yesterday: 60 °F

Past Weeks' High & Low Weather Summary

 TemperatureHumidityPressure
High70 °F (Mar 26, 12:00 PM)100% (Mar 22, 8:30 AM)30.36 "Hg (Mar 22, 8:30 AM)
Low48 °F (Mar 21, 3:30 AM)48% (Mar 20, 9:00 AM)29.65 "Hg (Mar 29, 8:00 PM)
Average60 °F78%30.06 "Hg
* Reported Mar 18 4:00 AM — Apr 2 4:30 AM, Wellington, Weather by CustomWeather, © 2015

Note: Actual official high and low records may vary slightly from our data, if they occured in-between our weather recording intervals... More about our weather records

Advertising

Wellington weather history for previous 24 hours

 ConditionsComfort  
Time TempWeatherWind HumidityBarometerVisibility
4:30 AM
Thu, Apr 2
61 °FPassing clouds.17 mph83%30.30 "HgN/A
4:00 AM61 °FPassing clouds.14 mph83%30.30 "HgN/A
3:30 AM61 °FPassing clouds.14 mph83%30.30 "HgN/A
3:00 AM61 °FPassing clouds.15 mph83%30.30 "HgN/A
2:30 AM61 °FPassing clouds.16 mph83%30.33 "HgN/A
2:00 AM61 °FCool.16 mph83%30.33 "HgN/A
1:30 AM61 °FCool.15 mph83%30.33 "HgN/A
1:00 AM61 °FCool.14 mph83%30.33 "HgN/A
12:30 AM61 °FCool.15 mph77%30.33 "HgN/A
12:00 AM61 °FCool.13 mph77%30.33 "HgN/A
11:30 PM
Wed, Apr 1
61 °FCool.12 mph77%30.33 "HgN/A
11:00 PM61 °FCool.12 mph77%30.33 "HgN/A
10:30 PM61 °FCool.12 mph77%30.33 "HgN/A
10:00 PM61 °FCool.10 mph72%30.33 "HgN/A
9:30 PM61 °FCool.9 mph68%30.33 "HgN/A
9:00 PM61 °FCool.7 mph68%30.30 "HgN/A
8:30 PM61 °FCool.7 mph68%30.30 "HgN/A
8:00 PM61 °FCool.6 mph68%30.30 "HgN/A
7:30 PM64 °FMild.7 mph60%30.30 "HgN/A
7:00 PM63 °FMild.7 mph64%30.30 "HgN/A
6:30 PM66 °FMild.8 mph56%30.30 "HgN/A
6:00 PM68 °FMild.8 mph49%30.30 "HgN/A
5:30 PM66 °FMild.3 mph64%30.30 "HgN/A
5:00 PM64 °FMild.5 mph73%30.30 "HgN/A
4:30 PM64 °FMild.8 mph73%30.30 "HgN/A
3:30 PM64 °FMild.8 mph73%30.30 "HgN/A
3:00 PM64 °FMild.8 mph73%30.30 "HgN/A
2:30 PM64 °FMild.8 mph73%30.33 "HgN/A
2:00 PM63 °FMild.8 mph77%30.33 "HgN/A
1:30 PM63 °FMild.9 mph77%30.33 "HgN/A
1:00 PM63 °FMild.9 mph83%30.36 "HgN/A
12:30 PM63 °FMild.7 mph77%30.36 "HgN/A
12:00 PM63 °FMild.6 mph77%30.36 "HgN/A
11:30 AM63 °FMild.6 mph77%30.36 "HgN/A
11:00 AM63 °FMild.3 mph77%30.36 "HgN/A
10:30 AM63 °FMild.2 mph73%30.36 "HgN/A
10:00 AM59 °FCool.5 mph82%30.33 "HgN/A
9:30 AM57 °FScattered clouds.6 mph88%30.33 "HgN/A
9:00 AM55 °FScattered clouds.7 mph88%30.33 "HgN/A
8:30 AM55 °FPartly sunny.5 mph88%30.30 "HgN/A
8:00 AM54 °FPartly sunny.5 mph94%30.30 "HgN/A
7:30 AM55 °FPassing clouds.3 mph88%30.30 "HgN/A
7:00 AM55 °FPassing clouds.6 mph88%30.30 "HgN/A
6:30 AM54 °FPassing clouds.3 mph94%30.27 "HgN/A
6:00 AM54 °FCool.3 mph94%30.27 "HgN/A
5:30 AM54 °FCool.3 mph94%30.27 "HgN/A
5:00 AM54 °FCool.6 mph94%30.27 "HgN/A
Weather by CustomWeather, © 2015

See weather overviewHow to use our weather pages